Location: Saint-Usage
(47.1052°N, 5.2587°E)
Time: 00:35:28
(UTC+02:00)

X-37B - Visible Passes

Search period start: 29 September 2021 00:00
Search period end: 09 October 2021 00:00
Orbit: 381 x 393 km, 45.0° (Epoch: 29 August)

Date Brightness Start Highest point End Pass type
(mag) Time Alt. Az. Time Alt. Az. Time Alt. Az.
29 Sep 3.3 05:02:12 18° E 05:02:12 18° E 05:03:09 10° E visible
29 Sep 1.0 06:34:29 19° W 06:36:31 50° S 06:39:36 10° ESE visible
30 Sep 1.3 05:38:49 46° SE 05:38:49 46° SE 05:41:19 10° ESE visible
01 Oct 1.3 06:15:30 32° SW 06:16:18 39° SSW 06:19:16 10° SE visible
02 Oct 3.0 05:19:57 19° ESE 05:19:57 19° ESE 05:21:04 10° ESE visible
02 Oct 2.3 06:52:16 12° WSW 06:54:14 19° SSW 06:56:33 10° SSE visible
03 Oct 2.1 05:56:49 24° S 05:56:49 24° S 05:58:46 10° SE visible
04 Oct 2.8 06:33:47 12° SW 06:33:51 12° SSW 06:35:11 10° S visible
